User: anonymous
Location: Solon
(41.3849°N, 81.4081°W)
Time: 03:53:03
(UTC-04:00)
Language:

CZ-2C R/B - Orbit

View from above orbital plane
View from above orbital plane
View from above satellite
View from above satellite

Ground track
Ground track

The orbit data is extracted from the following two-line orbital elements,

1 28480U 04046B   14203.46777094 -.00000015  00000-0  88482-5 0  3884
2 28480 098.0941 356.7405 0143918 117.4612 310.5352 14.25315610503110
Epoch (UTC): 22 July 2014 11:13:35
Eccentricity: 0.0143918
inclination: 98.0941°
perigee height: 704 km
apogee height: 911 km
right ascension of ascending node: 356.7405°
argument of perigee: 117.4612°
revolutions per day: 14.25315610
mean anomaly at epoch: 310.5352°
orbit number at epoch: 50311

The dashed part of the orbit path shows where the satellite is in the earth's shadow,  

DLR